Back to catalog

FENGYUN 1C DEB

AliveSSO
NORAD 37460·DEBRIS·🇨🇳 China

Launched May 10, 1999 from Taiyuan Satellite Launch Center

Loading…

Next Passes (next 24 hours)

TLE

FreshSource: Space-Track

Epoch: Sep 13, 2026, 05:44 UTC

1 37460U 99025EJE 26256.23925883  .00004437  00000-0  11010-2 0  9999
2 37460  98.3906  75.8018 0052520 170.8998 189.3161 14.51517758864676

Track FENGYUN 1C DEB in real time with AllMySat

Download on the App Store